TimePST,TemperatureF,Dew PointF,Humidity,Sea Level PressureIn,VisibilityMPH,Wind Direction,Wind SpeedMPH,Gust SpeedMPH,PrecipitationIn,Events,Conditions,WindDirDegrees,DateUTC
12:55 AM,30.9,25.0,79,29.80,10.0,Calm,Calm,-,N/A,,Overcast,0,2013-02-19 08:55:00
1:55 AM,30.9,26.1,82,29.79,10.0,Calm,Calm,-,N/A,,Overcast,0,2013-02-19 09:55:00
2:55 AM,30.9,26.1,82,29.79,10.0,NW,5.8,-,N/A,,Overcast,310,2013-02-19 10:55:00
3:55 AM,32.0,26.1,79,29.78,10.0,NNW,4.6,-,N/A,,Overcast,340,2013-02-19 11:55:00
4:55 AM,32.0,26.1,79,29.79,10.0,WNW,4.6,-,N/A,,Overcast,290,2013-02-19 12:55:00
6:55 AM,30.9,26.1,82,29.79,10.0,WNW,6.9,-,N/A,,Mostly Cloudy,290,2013-02-19 14:55:00
7:55 AM,30.9,24.1,76,29.80,10.0,WNW,6.9,-,N/A,,Clear,290,2013-02-19 15:55:00
8:55 AM,34.0,25.0,70,29.81,10.0,West,6.9,-,N/A,,Mostly Cloudy,270,2013-02-19 16:55:00
9:55 AM,37.9,24.1,57,29.79,10.0,NW,10.4,-,N/A,,Clear,310,2013-02-19 17:55:00
10:55 AM,39.9,24.1,53,29.79,10.0,NW,8.1,-,N/A,,Clear,310,2013-02-19 18:55:00
11:55 AM,42.1,24.1,49,29.79,10.0,SW,5.8,-,N/A,,Partly Cloudy,230,2013-02-19 19:55:00
12:55 PM,43.0,24.1,47,29.78,10.0,Variable,5.8,-,N/A,,Scattered Clouds,0,2013-02-19 20:55:00
1:55 PM,44.1,21.9,42,29.78,10.0,Calm,Calm,-,N/A,,Overcast,0,2013-02-19 21:55:00
2:55 PM,45.0,21.9,40,29.78,10.0,Calm,Calm,-,N/A,,Partly Cloudy,0,2013-02-19 22:55:00
4:55 PM,44.1,25.0,47,29.81,10.0,SSW,3.5,-,N/A,,Overcast,200,2013-02-20 00:55:00
5:55 PM,41.0,25.0,53,29.83,10.0,East,3.5,-,N/A,,Scattered Clouds,90,2013-02-20 01:55:00
6:55 PM,39.0,23.0,53,29.85,10.0,Calm,Calm,-,N/A,,Clear,0,2013-02-20 02:55:00
7:55 PM,36.0,23.0,59,29.88,10.0,Calm,Calm,-,N/A,,Clear,0,2013-02-20 03:55:00
8:55 PM,34.0,23.0,64,29.90,10.0,NNW,4.6,-,N/A,,Mostly Cloudy,340,2013-02-20 04:55:00
9:55 PM,36.0,23.0,59,29.91,10.0,WNW,4.6,-,N/A,,Clear,300,2013-02-20 05:55:00
10:55 PM,32.0,23.0,69,29.94,10.0,Calm,Calm,-,N/A,,Clear,0,2013-02-20 06:55:00
11:55 PM,30.0,21.9,72,29.95,10.0,Calm,Calm,-,N/A,,Clear,0,2013-02-20 07:55:00